Location: ????????
(38.4362°N, 22.8767°E)
Time: 13:02:56
(UTC+00:00)

Cosmos 1092 Rocket - Visible Passes

Search period start: 12 July 2024 00:00
Search period end: 22 July 2024 00:00
Orbit: 953 x 995 km, 83.0° (Epoch: 12 July)

Date Brightness Start Highest point End Pass type
(mag) Time Alt. Az. Time Alt. Az. Time Alt. Az.
12 Jul 6.3 01:17:55 10° NNE 01:22:30 21° ENE 01:27:02 10° ESE visible
13 Jul 5.4 01:42:06 10° N 01:47:48 39° ENE 01:53:28 10° SE visible
14 Jul 4.3 02:06:47 10° N 02:12:56 72° E 02:19:02 10° SSE visible
15 Jul 6.5 00:48:02 10° NNE 00:52:03 18° ENE 00:56:02 10° ESE visible
15 Jul 4.0 02:31:50 10° NNW 02:37:53 63° W 02:43:55 10° S visible
16 Jul 5.6 01:11:58 10° NNE 01:17:25 32° ENE 01:22:50 10° SE visible
17 Jul 4.5 01:36:32 10° N 01:42:35 59° E 01:48:37 10° SSE visible
18 Jul 6.5 00:18:19 10° NE 00:21:35 15° ENE 00:24:51 10° E visible
18 Jul 3.9 02:01:28 10° N 02:07:36 76° W 02:13:42 10° S visible
19 Jul 5.8 00:41:53 10° NNE 00:47:01 27° ENE 00:52:06 10° SE visible
19 Jul 4.4 02:26:47 10° NNW 02:32:27 41° W 02:38:06 10° SSW visible
20 Jul 4.8 01:06:18 10° N 01:12:15 49° E 01:18:09 10° SSE visible
20 Jul 5.2 02:52:37 10° NW 02:57:08 22° W 03:01:39 10° SW visible
20 Jul 6.5 23:48:56 10° NE 23:51:06 12° ENE 23:53:16 10° E visible
21 Jul 3.9 01:31:08 10° N 01:37:18 90° E 01:43:27 10° S visible
